Time,TemperatureF,DewpointF,PressureIn,WindDirection,WindDirectionDegrees,WindSpeedMPH,WindSpeedGustMPH,Humidity,HourlyPrecipIn,Conditions,Clouds,dailyrainin,SoftwareType,DateUTC
2013-01-06 00:15:00,35.1,31.0,30.04,SW,219,11.0,-999.0,85,-99.99,,,0.01,weatherlink.com 1.10,2013-01-06 06:15:00,
2013-01-06 00:30:00,35.0,31.0,30.03,South,191,6.0,-999.0,86,-99.99,,,0.01,weatherlink.com 1.10,2013-01-06 06:30:00,
2013-01-06 00:45:00,35.0,31.0,30.03,SW,221,10.0,-999.0,85,-99.99,,,0.01,weatherlink.com 1.10,2013-01-06 06:45:00,
2013-01-06 01:00:00,35.1,31.0,30.02,SSW,196,12.0,-999.0,85,-99.99,,,0.01,weatherlink.com 1.10,2013-01-06 07:00:00,
2013-01-06 01:15:00,35.0,31.0,30.02,SSW,202,10.0,-999.0,86,-99.99,,,0.01,weatherlink.com 1.10,2013-01-06 07:15:00,
2013-01-06 01:46:00,35.1,31.0,30.01,SW,236,6.0,-999.0,86,-99.99,,,0.00,weatherlink.com 1.10,2013-01-06 07:46:00,
2013-01-06 02:01:00,35.2,31.0,30.02,SSW,202,12.0,-999.0,86,-99.99,,,0.00,weatherlink.com 1.10,2013-01-06 08:01:00,
2013-01-06 02:15:00,35.2,31.0,30.01,SSW,213,7.0,-999.0,85,-99.99,,,0.00,weatherlink.com 1.10,2013-01-06 08:15:00,
2013-01-06 02:30:00,35.3,31.0,30.02,SW,223,5.0,-999.0,85,-99.99,,,0.00,weatherlink.com 1.10,2013-01-06 08:30:00,
2013-01-06 02:45:00,35.3,31.0,30.01,SSW,205,10.0,-999.0,85,-99.99,,,0.00,weatherlink.com 1.10,2013-01-06 08:45:00,
2013-01-06 03:01:00,35.3,32.0,30.00,SSW,192,5.0,-999.0,86,-99.99,,,0.00,weatherlink.com 1.10,2013-01-06 09:01:00,
2013-01-06 03:15:00,35.3,32.0,30.00,SW,216,8.0,-999.0,86,-99.99,,,0.00,weatherlink.com 1.10,2013-01-06 09:15:00,
2013-01-06 03:30:00,35.3,32.0,30.00,SSW,213,7.0,-999.0,86,-99.99,,,0.00,weatherlink.com 1.10,2013-01-06 09:30:00,
2013-01-06 03:45:00,35.2,31.0,30.00,WSW,243,4.0,-999.0,86,-99.99,,,0.00,weatherlink.com 1.10,2013-01-06 09:45:00,
2013-01-06 04:01:00,35.2,31.0,30.00,SSW,213,6.0,-999.0,86,-99.99,,,0.00,weatherlink.com 1.10,2013-01-06 10:01:00,
2013-01-06 04:15:00,35.1,32.0,29.99,SW,229,4.0,-999.0,87,-99.99,,,0.00,weatherlink.com 1.10,2013-01-06 10:15:00,
2013-01-06 04:30:00,35.1,32.0,29.99,SSW,210,7.0,-999.0,87,-99.99,,,0.00,weatherlink.com 1.10,2013-01-06 10:30:00,
2013-01-06 04:45:00,35.0,32.0,29.99,SW,225,7.0,-999.0,87,-99.99,,,0.00,weatherlink.com 1.10,2013-01-06 10:45:00,
2013-01-06 05:01:00,34.9,31.0,29.99,SW,222,7.0,-999.0,87,-99.99,,,0.00,weatherlink.com 1.10,2013-01-06 11:01:00,
2013-01-06 05:15:00,34.7,32.0,29.99,SW,221,6.0,-999.0,88,-99.99,,,0.00,weatherlink.com 1.10,2013-01-06 11:15:00,
2013-01-06 05:30:00,34.8,32.0,30.00,WSW,251,9.0,-999.0,88,-99.99,,,0.00,weatherlink.com 1.10,2013-01-06 11:30:00,
2013-01-06 05:45:00,34.7,32.0,30.00,WSW,252,9.0,-999.0,88,-99.99,,,0.00,weatherlink.com 1.10,2013-01-06 11:45:00,
2013-01-06 06:01:00,32.9,29.0,30.01,NW,308,7.0,-999.0,86,-99.99,,,0.01,weatherlink.com 1.10,2013-01-06 12:01:00,
2013-01-06 06:15:00,31.6,28.0,30.03,WNW,283,9.0,-999.0,85,-99.99,,,0.01,weatherlink.com 1.10,2013-01-06 12:15:00,
2013-01-06 06:30:00,30.7,27.0,30.03,WNW,286,13.0,-999.0,85,-99.99,,,0.01,weatherlink.com 1.10,2013-01-06 12:30:00,
2013-01-06 06:45:00,30.0,25.0,30.04,WNW,288,7.0,-999.0,83,-99.99,,,0.01,weatherlink.com 1.10,2013-01-06 12:45:00,
2013-01-06 07:01:00,29.4,25.0,30.04,NW,319,11.0,-999.0,82,-99.99,,,0.01,weatherlink.com 1.10,2013-01-06 13:01:00,
2013-01-06 07:17:00,29.1,25.0,30.04,NNW,327,8.0,-999.0,83,-99.99,,,0.01,weatherlink.com 1.10,2013-01-06 13:17:00,
2013-01-06 07:32:00,28.1,23.0,30.05,NW,325,11.0,-999.0,82,-99.99,,,0.01,weatherlink.com 1.10,2013-01-06 13:32:00,
2013-01-06 07:47:00,27.3,23.0,30.05,NW,315,14.0,-999.0,84,-99.99,,,0.01,weatherlink.com 1.10,2013-01-06 13:47:00,
2013-01-06 08:01:00,26.9,23.0,30.06,NW,305,6.0,-999.0,84,-99.99,,,0.01,weatherlink.com 1.10,2013-01-06 14:01:00,
2013-01-06 08:16:00,26.9,23.0,30.07,West,281,3.0,-999.0,85,-99.99,,,0.01,weatherlink.com 1.10,2013-01-06 14:16:00,
2013-01-06 08:31:00,26.6,22.0,30.08,NNW,333,7.0,-999.0,84,-99.99,,,0.01,weatherlink.com 1.10,2013-01-06 14:31:00,
2013-01-06 08:46:00,26.7,23.0,30.09,WNW,286,4.0,-999.0,84,-99.99,,,0.01,weatherlink.com 1.10,2013-01-06 14:46:00,
2013-01-06 09:01:00,26.8,22.0,30.09,NW,311,12.0,-999.0,83,-99.99,,,0.01,weatherlink.com 1.10,2013-01-06 15:01:00,
2013-01-06 09:16:00,26.4,22.0,30.10,WNW,298,13.0,-999.0,83,-99.99,,,0.01,weatherlink.com 1.10,2013-01-06 15:16:00,
2013-01-06 09:31:00,26.2,22.0,30.10,NW,306,10.0,-999.0,84,-99.99,,,0.01,weatherlink.com 1.10,2013-01-06 15:31:00,
2013-01-06 09:46:00,26.2,22.0,30.11,West,275,6.0,-999.0,84,-99.99,,,0.01,weatherlink.com 1.10,2013-01-06 15:46:00,
2013-01-06 10:01:00,25.9,22.0,30.13,NW,322,9.0,-999.0,84,-99.99,,,0.01,weatherlink.com 1.10,2013-01-06 16:01:00,
2013-01-06 10:16:00,25.6,21.0,30.13,WNW,290,12.0,-999.0,84,-99.99,,,0.01,weatherlink.com 1.10,2013-01-06 16:16:00,
2013-01-06 10:32:00,25.4,21.0,30.13,West,280,12.0,-999.0,83,-99.99,,,0.01,weatherlink.com 1.10,2013-01-06 16:32:00,
2013-01-06 10:47:00,25.1,20.0,30.14,NW,319,10.0,-999.0,82,-99.99,,,0.01,weatherlink.com 1.10,2013-01-06 16:47:00,
2013-01-06 11:02:00,24.8,20.0,30.14,NW,304,15.0,-999.0,83,-99.99,,,0.01,weatherlink.com 1.10,2013-01-06 17:02:00,
2013-01-06 11:17:00,24.4,20.0,30.14,NW,310,10.0,-999.0,83,-99.99,,,0.01,weatherlink.com 1.10,2013-01-06 17:17:00,
2013-01-06 11:33:00,24.1,20.0,30.14,WNW,299,7.0,-999.0,83,-99.99,,,0.01,weatherlink.com 1.10,2013-01-06 17:33:00,
2013-01-06 11:48:00,23.9,20.0,30.14,WNW,293,13.0,-999.0,83,-99.99,,,0.01,weatherlink.com 1.10,2013-01-06 17:48:00,
2013-01-06 12:02:00,24.0,19.0,30.15,WNW,294,6.0,-999.0,82,-99.99,,,0.01,weatherlink.com 1.10,2013-01-06 18:02:00,
2013-01-06 12:17:00,24.9,20.0,30.15,NW,311,9.0,-999.0,83,-99.99,,,0.01,weatherlink.com 1.10,2013-01-06 18:17:00,
2013-01-06 12:32:00,24.8,20.0,30.15,WNW,296,10.0,-999.0,83,-99.99,,,0.01,weatherlink.com 1.10,2013-01-06 18:32:00,
2013-01-06 12:47:00,25.5,21.0,30.16,NW,306,4.0,-999.0,83,-99.99,,,0.01,weatherlink.com 1.10,2013-01-06 18:47:00,
2013-01-06 13:02:00,25.5,21.0,30.16,WNW,295,11.0,-999.0,84,-99.99,,,0.01,weatherlink.com 1.10,2013-01-06 19:02:00,
2013-01-06 13:18:00,26.1,22.0,30.17,WNW,292,11.0,-999.0,83,-99.99,,,0.01,weatherlink.com 1.10,2013-01-06 19:18:00,
2013-01-06 13:33:00,26.9,22.0,30.16,WNW,296,7.0,-999.0,83,-99.99,,,0.01,weatherlink.com 1.10,2013-01-06 19:33:00,
2013-01-06 13:48:00,27.8,23.0,30.18,West,274,11.0,-999.0,82,-99.99,,,0.01,weatherlink.com 1.10,2013-01-06 19:48:00,
2013-01-06 14:17:00,28.4,23.0,30.19,NNW,329,5.0,-999.0,81,-99.99,,,0.01,weatherlink.com 1.10,2013-01-06 20:17:00,
2013-01-06 14:32:00,28.5,23.0,30.20,WNW,291,5.0,-999.0,81,-99.99,,,0.01,weatherlink.com 1.10,2013-01-06 20:32:00,
2013-01-06 14:47:00,29.6,24.0,30.20,WNW,286,1.0,-999.0,81,-99.99,,,0.01,weatherlink.com 1.10,2013-01-06 20:47:00,
2013-01-06 15:02:00,30.1,25.0,30.21,WNW,288,4.0,-999.0,80,-99.99,,,0.01,weatherlink.com 1.10,2013-01-06 21:02:00,
2013-01-06 15:17:00,30.4,25.0,30.21,West,274,2.0,-999.0,80,-99.99,,,0.01,weatherlink.com 1.10,2013-01-06 21:17:00,
2013-01-06 15:32:00,30.4,25.0,30.23,WNW,285,11.0,-999.0,81,-99.99,,,0.01,weatherlink.com 1.10,2013-01-06 21:32:00,
2013-01-06 15:47:00,30.5,25.0,30.24,WNW,286,7.0,-999.0,81,-99.99,,,0.01,weatherlink.com 1.10,2013-01-06 21:47:00,
2013-01-06 16:03:00,30.4,25.0,30.25,WNW,292,5.0,-999.0,81,-99.99,,,0.01,weatherlink.com 1.10,2013-01-06 22:03:00,
2013-01-06 16:18:00,30.1,25.0,30.25,WNW,295,0.0,-999.0,80,-99.99,,,0.01,weatherlink.com 1.10,2013-01-06 22:18:00,
2013-01-06 16:33:00,29.2,24.0,30.26,WNW,302,0.0,-999.0,81,-99.99,,,0.01,weatherlink.com 1.10,2013-01-06 22:33:00,
2013-01-06 16:49:00,28.4,24.0,30.26,WNW,293,0.0,-999.0,83,-99.99,,,0.01,weatherlink.com 1.10,2013-01-06 22:49:00,
2013-01-06 17:02:00,27.6,23.0,30.27,WNW,296,3.0,-999.0,84,-99.99,,,0.01,weatherlink.com 1.10,2013-01-06 23:02:00,
2013-01-06 17:18:00,27.1,23.0,30.28,WNW,292,0.0,-999.0,84,-99.99,,,0.01,weatherlink.com 1.10,2013-01-06 23:18:00,
2013-01-06 17:33:00,26.4,22.0,30.29,WNW,283,0.0,-999.0,84,-99.99,,,0.01,weatherlink.com 1.10,2013-01-06 23:33:00,
2013-01-06 17:48:00,25.6,22.0,30.31,WNW,286,0.0,-999.0,85,-99.99,,,0.01,weatherlink.com 1.10,2013-01-06 23:48:00,
2013-01-06 18:03:00,24.8,21.0,30.32,WNW,286,0.0,-999.0,86,-99.99,,,0.01,weatherlink.com 1.10,2013-01-07 00:03:00,
2013-01-06 18:18:00,24.2,21.0,30.32,WNW,286,0.0,-999.0,86,-99.99,,,0.01,weatherlink.com 1.10,2013-01-07 00:18:00,
2013-01-06 18:33:00,23.5,20.0,30.32,WNW,286,0.0,-999.0,87,-99.99,,,0.01,weatherlink.com 1.10,2013-01-07 00:33:00,
2013-01-06 18:48:00,22.9,20.0,30.33,WNW,296,1.0,-999.0,87,-99.99,,,0.01,weatherlink.com 1.10,2013-01-07 00:48:00,
2013-01-06 19:04:00,22.8,20.0,30.34,WNW,290,0.0,-999.0,88,-99.99,,,0.01,weatherlink.com 1.10,2013-01-07 01:04:00,
2013-01-06 19:19:00,23.1,20.0,30.34,WNW,288,0.0,-999.0,88,-99.99,,,0.01,weatherlink.com 1.10,2013-01-07 01:19:00,
2013-01-06 19:34:00,23.3,20.0,30.34,WNW,300,0.0,-999.0,88,-99.99,,,0.01,weatherlink.com 1.10,2013-01-07 01:34:00,
2013-01-06 19:49:00,23.4,20.0,30.34,NW,316,0.0,-999.0,88,-99.99,,,0.01,weatherlink.com 1.10,2013-01-07 01:49:00,
2013-01-06 20:04:00,23.3,20.0,30.34,WNW,300,0.0,-999.0,88,-99.99,,,0.01,weatherlink.com 1.10,2013-01-07 02:04:00,
2013-01-06 20:19:00,23.1,20.0,30.35,NW,304,2.0,-999.0,88,-99.99,,,0.01,weatherlink.com 1.10,2013-01-07 02:19:00,
2013-01-06 20:34:00,22.8,20.0,30.36,WNW,298,0.0,-999.0,88,-99.99,,,0.01,weatherlink.com 1.10,2013-01-07 02:34:00,
2013-01-06 20:49:00,21.8,19.0,30.37,WNW,298,0.0,-999.0,87,-99.99,,,0.01,weatherlink.com 1.10,2013-01-07 02:49:00,
2013-01-06 21:03:00,20.9,18.0,30.37,WNW,298,0.0,-999.0,88,-99.99,,,0.01,weatherlink.com 1.10,2013-01-07 03:03:00,
2013-01-06 21:18:00,20.4,17.0,30.37,WNW,298,0.0,-999.0,88,-99.99,,,0.01,weatherlink.com 1.10,2013-01-07 03:18:00,
2013-01-06 21:33:00,20.0,17.0,30.37,WNW,298,0.0,-999.0,88,-99.99,,,0.01,weatherlink.com 1.10,2013-01-07 03:33:00,
2013-01-06 21:48:00,19.6,17.0,30.38,WNW,298,0.0,-999.0,89,-99.99,,,0.01,weatherlink.com 1.10,2013-01-07 03:48:00,
2013-01-06 22:04:00,19.1,16.0,30.37,WNW,298,0.0,-999.0,89,-99.99,,,0.01,weatherlink.com 1.10,2013-01-07 04:04:00,
2013-01-06 22:19:00,19.1,16.0,30.37,WNW,298,0.0,-999.0,89,-99.99,,,0.01,weatherlink.com 1.10,2013-01-07 04:19:00,
2013-01-06 22:34:00,19.1,17.0,30.37,WNW,298,0.0,-999.0,90,-99.99,,,0.01,weatherlink.com 1.10,2013-01-07 04:34:00,
2013-01-06 22:49:00,18.8,16.0,30.38,WNW,298,0.0,-999.0,89,-99.99,,,0.01,weatherlink.com 1.10,2013-01-07 04:49:00,
2013-01-06 23:05:00,18.6,16.0,30.37,WNW,298,0.0,-999.0,90,-99.99,,,0.01,weatherlink.com 1.10,2013-01-07 05:05:00,
2013-01-06 23:19:00,18.6,16.0,30.38,WNW,298,0.0,-999.0,90,-99.99,,,0.01,weatherlink.com 1.10,2013-01-07 05:19:00,
2013-01-06 23:34:00,18.6,16.0,30.38,WNW,298,0.0,-999.0,90,-99.99,,,0.01,weatherlink.com 1.10,2013-01-07 05:34:00,
2013-01-06 23:49:00,18.6,16.0,30.38,WNW,298,0.0,-999.0,90,-99.99,,,0.01,weatherlink.com 1.10,2013-01-07 05:49:00,